| time (UTC) | temp C | wind direction | speed KPH | gust KPH | rain 1hr cm | rain 24hr cm | rain mn cm | humidity % | barometer mb |
| 20260507213000 | 17 | 209 | 8.0 | 16.1 | 0.00 | 0.00 | 0.00 | 33 | 1017.7 |
| 20260507211501 | 17 | 178 | 9.7 | 12.9 | 0.00 | 0.00 | 0.00 | 32 | 1017.6 |
| 20260507210012 | 17 | 193 | 14.5 | 22.5 | 0.00 | 0.00 | 0.00 | 32 | 1017.2 |
| 20260507204500 | 18 | 182 | 12.9 | 20.9 | 0.00 | 0.00 | 0.00 | 32 | 1017.3 |
| 20260507203000 | 18 | 161 | 12.9 | 19.3 | 0.00 | 0.00 | 0.00 | 31 | 1017.4 |
| 20260507201500 | 18 | 205 | 14.5 | 24.1 | 0.00 | 0.00 | 0.00 | 31 | 1017.6 |
| 20260507200002 | 18 | 194 | 12.9 | 19.3 | 0.00 | 0.00 | 0.00 | 29 | 1017.4 |
| 20260507194521 | 18 | 189 | 8.0 | 12.9 | 0.00 | 0.00 | 0.00 | 27 | 1017.6 |
| 20260507193000 | 18 | 194 | 8.0 | 11.3 | 0.00 | 0.00 | 0.00 | 27 | 1017.5 |
| 20260507191500 | 18 | 195 | 8.0 | 12.9 | 0.00 | 0.00 | 0.00 | 25 | 1017.4 |
| 20260507190003 | 17 | 186 | 6.4 | 9.7 | 0.00 | 0.00 | 0.00 | 32 | 1017.8 |
| 20260507184500 | 17 | 205 | 8.0 | 9.7 | 0.00 | 0.00 | 0.00 | 37 | 1017.8 |
| 20260507183001 | 17 | 205 | 8.0 | 12.9 | 0.00 | 0.00 | 0.00 | 36 | 1017.5 |
| 20260507181501 | 17 | 217 | 8.0 | 9.7 | 0.00 | 0.00 | 0.00 | 38 | 1017.5 |
| 20260507180023 | 17 | 247 | 4.8 | 9.7 | 0.00 | 0.00 | 0.00 | 36 | 1017.5 |
| 20260507174501 | 17 | 195 | 6.4 | 9.7 | 0.00 | 0.00 | 0.00 | 36 | 1017.2 |
| 20260507173001 | 17 | 218 | 8.0 | 11.3 | 0.00 | 0.00 | 0.00 | 36 | 1017.5 |
| 20260507171501 | 17 | 247 | 3.2 | 6.4 | 0.00 | 0.00 | 0.00 | 37 | 1017.5 |
| 20260507170002 | 17 | 181 | 6.4 | 9.7 | 0.00 | 0.00 | 0.00 | 37 | 1017.2 |
| 20260507164522 | 17 | 199 | 6.4 | 9.7 | 0.00 | 0.00 | 0.00 | 36 | 1017.0 |
| 20260507163001 | 18 | 216 | 4.8 | 9.7 | 0.00 | 0.00 | 0.00 | 42 | 1017.1 |
| 20260507161501 | 18 | 222 | 4.8 | 8.0 | 0.00 | 0.00 | 0.00 | 38 | 1017.2 |
| 20260507160001 | 18 | 234 | 4.8 | 8.0 | 0.00 | 0.00 | 0.00 | 38 | 1017.3 |
| 20260507154501 | 19 | 210 | 6.4 | 8.0 | 0.00 | 0.00 | 0.00 | 35 | 1017.0 |
| 20260507153001 | 20 | 195 | 6.4 | 12.9 | 0.00 | 0.00 | 0.00 | 36 | 1017.2 |
| 20260507151501 | 20 | 203 | 6.4 | 6.4 | 0.00 | 0.00 | 0.00 | 39 | 1017.0 |
| 20260507150002 | 20 | 171 | 8.0 | 12.9 | 0.00 | 0.00 | 0.00 | 38 | 1016.9 |
| 20260507144502 | 20 | 197 | 6.4 | 9.7 | 0.00 | 0.00 | 0.00 | 35 | 1016.8 |
| 20260507143001 | 21 | 216 | 8.0 | 12.9 | 0.00 | 0.00 | 0.00 | 32 | 1016.8 |
| 20260507141501 | 21 | 183 | 8.0 | 12.9 | 0.00 | 0.00 | 0.00 | 36 | 1016.6 |
| 20260507140023 | 22 | 194 | 6.4 | 9.7 | 0.00 | 0.00 | 0.00 | 37 | 1016.2 |
| 20260507134501 | 22 | 215 | 6.4 | 9.7 | 0.00 | 0.00 | 0.00 | 37 | 1016.0 |
| 20260507133002 | 22 | 211 | 4.8 | 8.0 | 0.00 | 0.00 | 0.00 | 33 | 1016.0 |
| 20260507131502 | 22 | 178 | 8.0 | 9.7 | 0.00 | 0.00 | 0.00 | 30 | 1016.0 |
| 20260507130004 | 21 | 187 | 6.4 | 9.7 | 0.00 | 0.00 | 0.00 | 32 | 1016.2 |
| 20260507124501 | 22 | 196 | 6.4 | 9.7 | 0.00 | 0.00 | 0.00 | 30 | 1016.4 |
| 20260507123002 | 23 | 183 | 6.4 | 8.0 | 0.00 | 0.00 | 0.00 | 29 | 1016.4 |
| 20260507121501 | 23 | 181 | 4.8 | 9.7 | 0.00 | 0.00 | 0.00 | 29 | 1016.5 |
| 20260507120002 | 23 | 206 | 6.4 | 12.9 | 0.00 | 0.00 | 0.00 | 30 | 1016.4 |
| 20260507114501 | 24 | 175 | 8.0 | 12.9 | 0.00 | 0.00 | 0.00 | 35 | 1016.3 |
| 20260507113002 | 25 | 188 | 8.0 | 12.9 | 0.00 | 0.00 | 0.00 | 39 | 1016.0 |
| 20260507111503 | 24 | 190 | 6.4 | 9.7 | 0.00 | 0.00 | 0.00 | 39 | 1016.3 |
| 20260507110003 | 24 | 177 | 8.0 | 9.7 | 0.00 | 0.00 | 0.00 | 39 | 1016.2 |
| 20260507104507 | 24 | 225 | 4.8 | 8.0 | 0.00 | 0.00 | 0.00 | 37 | 1016.1 |
| 20260507103002 | 23 | 213 | 6.4 | 11.3 | 0.00 | 0.00 | 0.00 | 40 | 1016.1 |
| 20260507101502 | 23 | 196 | 6.4 | 9.7 | 0.00 | 0.00 | 0.00 | 42 | 1016.2 |
| 20260507100003 | 23 | 174 | 8.0 | 12.9 | 0.00 | 0.00 | 0.00 | 38 | 1016.3 |
| 20260507094502 | 23 | 180 | 6.4 | 12.9 | 0.00 | 0.00 | 0.00 | 38 | 1016.2 |
| 20260507093003 | 23 | 212 | 6.4 | 16.1 | 0.00 | 0.00 | 0.00 | 43 | 1016.1 |
| 20260507091523 | 23 | 203 | 6.4 | 12.9 | 0.00 | 0.00 | 0.00 | 41 | 1016.2 |
| 20260507090004 | 23 | 203 | 4.8 | 6.4 | 0.00 | 0.00 | 0.00 | 43 | 1016.1 |
| 20260507084523 | 23 | 251 | 4.8 | 8.0 | 0.00 | 0.00 | 0.00 | 45 | 1016.1 |
| 20260507083003 | 23 | 168 | 3.2 | 9.7 | 0.00 | 0.00 | 0.00 | 48 | 1016.2 |
| 20260507081502 | 22 | 231 | 4.8 | 11.3 | 0.00 | 0.00 | 0.00 | 48 | 1016.3 |
| 20260507080025 | 21 | 180 | 4.8 | 9.7 | 0.00 | 0.00 | 0.00 | 51 | 1016.4 |
| 20260507074502 | 22 | 255 | 3.2 | 3.2 | 0.00 | 0.00 | 0.00 | 54 | 1016.1 |
| 20260507073002 | 22 | 259 | 3.2 | 9.7 | 0.00 | 0.00 | 0.00 | 54 | 1015.9 |
| 20260507071503 | 21 | 251 | 3.2 | 6.4 | 0.00 | 0.00 | 0.00 | 50 | 1016.1 |
| 20260507070006 | 21 | 215 | 3.2 | 6.4 | 0.00 | 0.00 | 0.00 | 51 | 1016.3 |
| 20260507064502 | 21 | 218 | 3.2 | 6.4 | 0.00 | 0.00 | 0.00 | 50 | 1016.3 |
| 20260507063003 | 21 | 221 | 3.2 | 9.7 | 0.00 | 0.00 | 0.00 | 46 | 1016.4 |
| 20260507061504 | 21 | 6 | 3.2 | 3.2 | 0.00 | 0.00 | 0.00 | 49 | 1016.3 |
| 20260507060003 | 20 | 22 | 1.6 | 3.2 | 0.00 | 0.00 | 0.00 | 52 | 1016.3 |
| 20260507054502 | 20 | 5 | 3.2 | 3.2 | 0.00 | 0.00 | 0.00 | 50 | 1016.3 |
| 20260507053003 | 19 | 333 | 1.6 | 3.2 | 0.00 | 0.00 | 0.00 | 47 | 1016.4 |
| 20260507051503 | 18 | 360 | 1.6 | 3.2 | 0.00 | 0.00 | 0.00 | 51 | 1016.4 |
| 20260507050003 | 17 | 292 | 1.6 | 3.2 | 0.00 | 0.00 | 0.00 | 58 | 1016.8 |
| 20260507044503 | 16 | 283 | 3.2 | 3.2 | 0.00 | 0.00 | 0.00 | 60 | 1016.9 |
| 20260507043003 | 13 | 270 | 1.6 | 3.2 | 0.00 | 0.00 | 0.00 | 67 | 1017.4 |
| 20260507041524 | 11 | 279 | 3.2 | 3.2 | 0.00 | 0.00 | 0.00 | 72 | 1018.0 |
| 20260507040004 | 10 | 275 | 3.2 | 3.2 | 0.00 | 0.00 | 0.00 | 72 | 1018.2 |
| 20260507034503 | 10 | 273 | 4.8 | 8.0 | 0.00 | 0.00 | 0.00 | 72 | 1018.4 |
| 20260507033003 | 10 | 280 | 3.2 | 3.2 | 0.00 | 0.00 | 0.00 | 72 | 1018.3 |
| 20260507031503 | 11 | 306 | 4.8 | 8.0 | 0.00 | 0.00 | 0.00 | 69 | 1017.9 |
| 20260507030004 | 10 | 270 | 1.6 | 3.2 | 0.00 | 0.00 | 0.00 | 71 | 1017.7 |
| 20260507024503 | 10 | 286 | 4.8 | 8.0 | 0.00 | 0.00 | 0.00 | 70 | 1017.8 |
| 20260507023003 | 11 | 285 | 4.8 | 8.0 | 0.00 | 0.00 | 0.00 | 67 | 1017.7 |
| 20260507021503 | 11 | 290 | 3.2 | 3.2 | 0.00 | 0.00 | 0.00 | 65 | 1017.5 |
| 20260507020004 | 11 | 308 | 3.2 | 8.0 | 0.00 | 0.00 | 0.00 | 60 | 1017.2 |
| 20260507014525 | 11 | 296 | 3.2 | 8.0 | 0.00 | 0.00 | 0.00 | 62 | 1017.2 |
| 20260507013004 | 11 | 290 | 4.8 | 8.0 | 0.00 | 0.00 | 0.00 | 63 | 1017.2 |
| 20260507011525 | 11 | 278 | 3.2 | 8.0 | 0.00 | 0.00 | 0.00 | 63 | 1016.9 |
| 20260507010026 | 11 | 281 | 4.8 | 8.0 | 0.00 | 0.00 | 0.00 | 63 | 1016.9 |
| 20260507004504 | 11 | 281 | 4.8 | 8.0 | 0.00 | 0.00 | 0.00 | 66 | 1017.1 |
| 20260507003004 | 11 | 298 | 4.8 | 8.0 | 0.00 | 0.00 | 0.00 | 65 | 1016.9 |
| 20260507001505 | 11 | 295 | 4.8 | 8.0 | 0.00 | 0.00 | 0.00 | 66 | 1017.0 |
| 20260507000026 | 12 | 281 | 6.4 | 8.0 | 0.00 | 0.00 | 0.00 | 62 | 1017.1 |
| 20260506234501 | 12 | 271 | 3.2 | 8.0 | 0.00 | 0.00 | 0.00 | 60 | 1017.1 |
| 20260506233002 | 13 | 303 | 4.8 | 8.0 | 0.00 | 0.00 | 0.00 | 57 | 1017.0 |
| 20260506231501 | 12 | 299 | 4.8 | 8.0 | 0.00 | 0.00 | 0.00 | 62 | 1017.5 |
| 20260506230002 | 11 | 301 | 4.8 | 8.0 | 0.00 | 0.00 | 0.00 | 64 | 1017.7 |
| 20260506224521 | 11 | 291 | 4.8 | 8.0 | 0.00 | 0.00 | 0.00 | 67 | 1017.8 |
| 20260506223000 | 11 | 270 | 3.2 | 3.2 | 0.00 | 0.00 | 0.00 | 67 | 1017.8 |
| 20260506221522 | 12 | 297 | 4.8 | 8.0 | 0.00 | 0.00 | 0.00 | 68 | 1017.9 |
| 20260506220005 | 11 | 288 | 4.8 | 8.0 | 0.00 | 0.00 | 0.00 | 72 | 1018.0 |
| 20260506214521 | 11 | 299 | 3.2 | 8.0 | 0.00 | 0.00 | 0.00 | 72 | 1018.0 |